Temp
-8 -9 -9 -9 -9 -9 -9 -9 -9 -9 -9 -9 -9 -9 -9 -9 -9 -9 -9 -9 -9 -9 -9 -8 -8 -8 -8 -9 -9 -9 -9 -9 -9
-9 -9 -9 -9 -9 -9 -9 -9 -9 -9 -9 -9 -9 -9 -9 -9 -9 -9 -9 -10 -9 -9 -9 -9 -9 -9 -9 -9 -9 -9 -9 -9 -9
-9 -9 -9 -9 -9 -9 -9 -9 -9 -9 -9 -9 -9 -9 -9 -9 -9 -9 -9 -9 -9 -9 -9 -9 -9 -9 -9 -9 -9 -9 -9 -9 -9
-9 -9 -9 -9 -9 -9 -9 -9 -9 -9 -9 -9 -9 -9 -9 -9 -9 -9 -9 -9 -10 -10 -9 -9 -9 -10 -10 -10 -10 -9 -9 -9 -9
-9 -9 -9 -9 -9 -9 -9 -9 -9 -9 -9 -9 -9 -9 -9 -9 -9 -9 -9 -9 -9 -9 -9 -9 -9 -10 -10 -10 -10 -10 -10 -10 -10
-9 -9 -10 -10 -9 -9 -9 -9 -10 -10 -10 -10 -10 -10 -10 -9 -9 -9 -10 -9 -9 -9 -9 -9 -10 -10 -10 -10 -10 -10 -10 -10 -10
-10 -10 -10 -10 -10 -10 -10 -10 -10 -10 -10 -10 -10 -10 -10 -9 -9 -10 -10 -10 -10 -10 -10 -10 -10 -10 -10 -10 -10 -10 -10 -10 -10
-10 -10 -10 -10 -10 -10 -10 -10 -10 -10 -10 -10 -10 -10 -10 -10 -10 -10 -10 -10 -10 -10 -10 -10 -10 -10 -10 -10 -10 -10 -10 -10 -10
-10 -10 -10 -10 -10 -11 -11 -11 -11 -10 -10 -10 -10 -10 -10 -10 -10 -10 -10 -10 -10 -10 -10 -10 -10 -10 -10 -10 -10 -10 -11 -11 -11
-10 -10 -11 -11 -11 -11 -11 -11 -11 -11 -10 -10 -10 -10 -10 -10 -10 -10 -10 -10 -10 -10 -10 -10 -10 -10 -11 -11 -11 -11 -11 -11 -11
-10 -11 -11 -11 -11 -11 -11 -11 -11 -11 -11 -11 -10 -10 -10 -10 -10 -10 -11 -11 -11 -11 -11 -11 -11 -11 -11 -11 -11 -11 -11 -11 -11
-11 -11 -11 -11 -11 -11 -11 -11 -11 -11 -11 -11 -11 -11 -11 -11 -11 -11 -11 -11 -11 -11 -11 -11 -11 -11 -12 -12 -12 -12 -12 -12 -12
-11 -11 -11 -11 -11 -11 -11 -11 -11 -11 -11 -11 -11 -11 -11 -11 -11 -11 -11 -11 -11 -12 -12 -12 -12 -12 -12 -12 -12 -12 -12 -12 -12
-11 -11 -11 -11 -12 -12 -12 -12 -12 -12 -12 -12 -12 -12 -12 -12 -11 -12 -12 -12 -12 -12 -12 -12 -12 -12 -12 -12 -12 -12 -12 -12 -12
-12 -12 -12 -12 -12 -12 -12 -12 -12 -12 -12 -12 -12 -12 -12 -12 -12 -12 -12 -12 -12 -12 -12 -13 -13 -13 -13 -12 -12 -12 -13 -13 -13
-12 -13 -13 -13 -12 -12 -12 -12 -12 -12 -12 -12 -12 -12 -12 -12 -12 -12 -12 -13 -13 -13 -13 -13 -13 -13 -13 -13 -13 -13 -13 -13 -13
-13 -13 -12 -13 -13 -13 -13 -13 -13 -13 -13 -12 -13 -13 -12 -12 -12 -13 -13 -13 -13 -13 -13 -13 -13 -13 -13 -13 -13 -14 -14 -14 -14
-12 -13 -13 -13 -13 -13 -13 -13 -13 -13 -13 -13 -13 -13 -13 -13 -13 -13 -13 -13 -13 -13 -13 -13 -13 -14 -14 -14 -14 -14 -14 -15 -15
-13 -13 -13 -13 -13 -13 -13 -13 -13 -13 -13 -13 -14 -13 -13 -13 -13 -13 -13 -13 -14 -14 -14 -14 -14 -14 -14 -14 -15 -15 -15 -16 -16
-13 -13 -13 -13 -13 -13 -13 -13 -13 -13 -13 -14 -13 -14 -13 -13 -13 -14 -14 -14 -14 -14 -14 -14 -14 -14 -15 -15 -15 -16 -16 -16 -16
Height
5859 5860 5860 5859 5859 5859 5858 5858 5857 5856 5855 5853 5852 5851 5851 5849 5847 5846 5845 5843 5842 5841 5839 5838 5836 5835 5834 5832 5831 5830 5828 5827 5826
5858 5858 5858 5858 5858 5857 5857 5856 5856 5855 5854 5852 5851 5850 5849 5848 5846 5845 5843 5842 5840 5838 5837 5836 5834 5832 5831 5829 5828 5827 5826 5825 5824
5856 5856 5856 5856 5856 5855 5855 5854 5853 5852 5851 5850 5849 5848 5847 5846 5844 5843 5842 5840 5839 5837 5835 5833 5831 5830 5828 5827 5826 5824 5823 5822 5820
5853 5853 5853 5854 5853 5853 5852 5851 5851 5850 5848 5847 5846 5845 5843 5842 5841 5840 5838 5837 5835 5834 5832 5830 5828 5827 5825 5824 5823 5821 5820 5818 5816
5850 5850 5851 5851 5850 5850 5849 5848 5848 5847 5845 5844 5842 5841 5840 5839 5838 5837 5835 5834 5832 5830 5828 5827 5825 5823 5822 5820 5819 5818 5816 5814 5813
5847 5847 5847 5847 5846 5846 5845 5845 5844 5843 5842 5840 5839 5838 5836 5835 5834 5833 5831 5830 5828 5826 5824 5823 5821 5819 5817 5816 5815 5813 5812 5810 5809
5843 5844 5844 5844 5843 5842 5842 5841 5840 5840 5839 5836 5835 5834 5833 5831 5831 5829 5828 5826 5824 5822 5820 5818 5816 5815 5813 5811 5810 5808 5807 5805 5803
5840 5840 5840 5840 5840 5839 5838 5837 5836 5835 5834 5833 5831 5829 5828 5828 5826 5825 5823 5822 5820 5817 5815 5813 5811 5810 5808 5806 5805 5803 5801 5799 5797
5836 5836 5836 5836 5836 5835 5834 5834 5832 5831 5830 5828 5826 5825 5824 5823 5821 5820 5818 5816 5814 5812 5810 5808 5806 5804 5802 5800 5798 5796 5795 5793 5791
5832 5833 5833 5832 5832 5831 5830 5829 5828 5827 5826 5824 5822 5820 5819 5817 5816 5814 5813 5811 5808 5806 5804 5802 5800 5798 5796 5794 5792 5790 5788 5786 5784
5829 5829 5829 5828 5828 5827 5826 5825 5824 5823 5821 5820 5818 5817 5814 5812 5810 5809 5807 5804 5802 5800 5797 5795 5793 5791 5789 5786 5785 5782 5780 5778 5775
5824 5824 5824 5824 5823 5822 5821 5820 5819 5818 5817 5815 5814 5811 5809 5807 5804 5802 5800 5797 5795 5792 5790 5787 5785 5783 5781 5779 5776 5774 5771 5768 5766
5817 5818 5818 5818 5818 5818 5817 5816 5814 5813 5812 5810 5808 5805 5803 5800 5798 5795 5792 5790 5787 5784 5782 5779 5777 5775 5772 5769 5767 5764 5761 5758 5754
5811 5812 5813 5813 5812 5812 5811 5810 5809 5807 5805 5804 5802 5799 5796 5793 5790 5787 5785 5782 5779 5776 5773 5770 5768 5765 5762 5759 5756 5753 5750 5746 5742
5804 5805 5806 5806 5806 5805 5804 5803 5802 5800 5799 5797 5794 5792 5789 5786 5783 5780 5777 5774 5771 5767 5764 5761 5758 5755 5751 5747 5744 5740 5736 5732 5727
5796 5797 5798 5798 5799 5798 5796 5795 5795 5793 5791 5789 5787 5784 5781 5778 5775 5772 5769 5766 5762 5759 5755 5752 5748 5743 5738 5734 5729 5725 5721 5716 5711
5787 5788 5789 5790 5790 5790 5789 5788 5787 5785 5783 5780 5778 5775 5773 5769 5766 5763 5760 5756 5753 5749 5744 5740 5735 5730 5725 5719 5714 5709 5704 5698 5693
5778 5780 5781 5781 5782 5781 5781 5779 5778 5776 5774 5771 5769 5766 5763 5760 5757 5752 5749 5746 5742 5737 5732 5727 5722 5717 5711 5705 5699 5692 5687 5681 5675
5769 5772 5773 5773 5773 5773 5772 5770 5769 5767 5764 5762 5759 5756 5753 5750 5748 5743 5739 5735 5730 5725 5719 5713 5707 5702 5694 5688 5681 5674 5668 5662 5656
5759 5762 5765 5765 5765 5764 5762 5761 5759 5757 5753 5752 5750 5747 5743 5740 5736 5733 5729 5724 5718 5711 5704 5697 5690 5683 5675 5669 5662 5655 5649 5642 5635
Wind_Speed
9 8 8 8 7 8 8 8 9 10 9 9 8 8 9 12 14 16 16 14 13 12 13 14 15 15 14 13 14 14 14 15 14
12 11 11 11 10 9 10 11 11 11 11 12 11 11 11 12 15 17 19 18 16 16 16 16 16 15 15 15 15 14 15 14 12
14 14 13 13 14 13 12 12 12 14 14 14 14 13 13 14 14 16 19 19 17 17 17 17 16 15 15 14 14 16 15 15 14
17 16 16 16 16 16 16 15 15 15 16 15 16 16 15 15 16 16 19 21 20 18 18 18 17 17 17 17 18 19 18 18 17
18 18 18 17 18 18 19 18 18 17 18 17 18 18 18 17 17 17 19 22 23 22 21 19 19 19 20 20 20 19 20 20 20
20 19 19 18 18 19 19 19 18 17 18 19 19 20 20 19 19 20 21 22 24 24 23 22 21 21 22 23 24 24 23 24 24
20 19 19 18 17 17 18 18 19 20 21 23 23 21 20 19 21 22 23 23 25 25 26 24 23 24 25 26 27 28 29 29 28
18 17 17 17 17 18 20 21 21 22 21 21 21 20 20 20 22 24 25 26 27 27 29 28 27 27 27 29 29 31 31 32 33
18 17 17 17 17 18 18 19 19 20 20 20 20 21 22 23 25 26 27 27 28 28 31 31 29 29 30 31 32 33 34 35 35
18 16 15 14 15 16 16 18 19 21 22 22 22 22 23 25 27 28 29 29 30 30 32 32 32 31 32 33 35 36 37 39 40
21 18 17 17 17 17 18 19 21 23 25 26 26 26 26 27 29 30 31 31 31 32 33 34 33 33 34 35 37 39 40 42 42
29 24 21 21 21 21 21 22 23 26 27 29 30 30 30 29 29 31 32 32 32 34 34 35 35 36 37 38 40 42 43 45 46
26 29 26 24 24 25 25 25 27 30 30 32 33 33 33 32 32 32 33 34 34 36 36 37 37 39 40 41 43 45 48 50 52
27 29 29 27 27 27 28 29 31 32 34 38 39 36 35 35 34 34 35 35 37 38 38 39 40 42 43 45 48 50 53 56 58
28 30 30 29 29 32 32 33 35 36 38 39 41 40 37 35 35 36 37 38 39 40 41 42 43 45 47 50 53 56 59 61 63
33 33 35 31 32 34 36 39 40 42 43 43 46 39 37 37 37 39 39 40 41 43 43 45 47 50 52 55 58 61 64 66 68
34 40 39 39 38 39 41 43 45 45 46 47 49 38 38 39 39 40 42 42 44 46 48 50 52 55 58 62 64 67 69 70 71
41 40 38 37 39 41 44 46 45 46 48 50 39 37 39 39 40 41 43 45 48 50 52 54 57 59 62 65 67 69 70 71 71
43 43 37 42 45 46 47 49 49 50 49 46 38 38 39 40 42 44 46 48 51 54 56 59 62 65 68 69 69 70 72 72 72
47 44 44 45 46 50 52 53 54 53 41 34 37 41 41 42 44 46 49 52 55 58 62 65 68 70 70 70 71 73 73 74 77
Wind_Direction
261 275 289 294 304 315 322 327 330 329 335 328 325 329 337 339 342 344 343 339 332 326 324 323 323 325 326 327 329 332 331 334 337
262 268 278 290 296 298 305 312 315 319 322 319 319 316 314 323 334 340 338 332 328 321 321 321 322 319 320 321 323 323 322 325 329
264 270 277 285 292 296 299 304 311 312 312 315 317 316 307 304 311 324 334 331 321 316 315 318 315 311 308 307 310 315 316 318 316
266 272 278 284 290 295 300 304 307 308 307 309 312 316 310 299 298 308 324 330 325 317 313 314 308 302 298 296 302 311 312 310 310
266 273 279 286 292 296 300 303 305 308 307 306 307 312 311 301 296 300 311 323 326 320 314 313 306 298 295 292 297 303 306 303 302
267 273 280 286 291 295 299 301 304 306 306 305 306 308 307 301 295 296 304 315 321 319 313 309 304 296 292 290 290 294 297 299 301
269 275 281 285 288 291 294 297 299 300 301 300 302 303 302 297 295 296 300 307 314 316 311 305 299 293 291 291 289 290 292 294 296
268 272 277 281 284 288 290 294 298 300 302 303 304 306 303 299 297 296 298 302 308 312 311 304 300 292 289 289 289 288 288 290 293
265 268 274 279 283 289 294 298 300 304 308 309 307 305 303 301 298 297 297 299 304 307 308 304 299 292 287 286 286 288 290 292 294
264 267 274 283 290 296 302 307 309 311 312 312 310 307 304 302 300 298 298 299 302 304 306 302 297 293 290 287 287 289 290 290 291
269 268 276 284 293 302 307 311 315 317 316 315 311 307 305 303 301 299 298 298 300 301 302 298 295 290 288 287 288 288 289 289 291
264 272 275 281 289 295 299 305 311 314 313 313 311 309 306 302 299 298 298 297 298 298 297 294 292 289 287 287 288 289 291 292 292
263 266 274 279 285 289 293 298 306 309 311 311 310 309 306 301 298 297 296 295 294 295 295 292 289 288 288 289 290 292 293 293 293
253 262 270 275 281 285 288 292 302 305 309 311 309 306 305 301 296 294 294 291 291 293 293 291 290 289 290 291 292 293 294 294 294
251 261 268 274 279 284 285 290 296 298 303 306 308 301 302 299 296 294 293 290 291 292 291 289 289 290 292 293 294 295 295 295 295
248 254 258 268 275 278 281 287 292 295 298 302 306 296 297 297 295 294 292 291 291 291 291 290 290 294 295 295 295 296 297 298 297
244 254 265 264 265 274 278 285 290 295 295 298 299 294 297 295 293 292 292 291 292 292 292 292 294 296 297 298 300 300 300 298 295
247 256 263 266 272 274 278 284 288 291 292 296 291 294 293 292 291 291 291 292 292 293 294 295 296 299 299 300 300 299 297 295 295
244 255 256 266 272 277 281 282 284 289 283 288 293 291 291 291 291 292 292 292 293 295 297 298 300 300 300 301 300 298 296 296 295
246 251 258 264 270 277 279 282 287 287 281 290 291 290 292 291 292 293 293 295 296 299 301 302 302 302 303 301 299 298 298 297 296